User: anonymous   Login
Location: Boca do Mato
(22.9085°S, 43.2930°W)
Time: 07:17:51
(UTC+00:00)
Language:

Cosmos 2297 Rocket - Orbit

View from above orbital plane
View from above orbital plane
View from above satellite
View from above satellite

Ground track
Ground track

The orbit data is extracted from the following two-line orbital elements,

1 23405U 94077B   20265.89508413 -.00000274 +00000-0 -11640-3 0  9994
2 23405 070.9819 227.6816 0004816 292.5578 067.5035 14.15223963334001
Epoch (UTC): 21 September 2020 21:28:55
Eccentricity: 0.0004816
inclination: 70.9819°
perigee height: 838 km
apogee height: 845 km
right ascension of ascending node: 227.6816°
argument of perigee: 292.5578°
revolutions per day: 14.15223963
mean anomaly at epoch: 67.5035°
orbit number at epoch: 33400

The dashed part of the orbit path shows where the satellite is in the earth's shadow,  

DLR